User: anonymous   Login
Location: Theydon Bois
(51.6750°N, 0.1050°E)
Time: 02:37:37
(UTC+00:00)
Language:

SPOT 3 Rocket - Orbit

View from above orbital plane
View from above orbital plane
View from above satellite
View from above satellite

Ground track
Ground track

The orbit data is extracted from the following two-line orbital elements,

1 22830U 93061H   17350.64211437 -.00000027  00000-0  71252-5 0  9990
2 22830  98.8741  10.1289 0011821 113.7164 246.5260 14.31414223264340
Epoch (UTC): 16 December 2017 15:24:38
Eccentricity: 0.0011821
inclination: 98.8741°
perigee height: 778 km
apogee height: 795 km
right ascension of ascending node: 10.1289°
argument of perigee: 113.7164°
revolutions per day: 14.31414223
mean anomaly at epoch: 246.5260°
orbit number at epoch: 26434

The dashed part of the orbit path shows where the satellite is in the earth's shadow,  

DLR